EW1647 Weather Reports


Display with metric or nautical units.
time (UTC)temp
F
wind
direction
speed
MPH
gust
MPH
rain 1hr
in
rain 24hr
in
rain mn
in
humidity
%
barometer
mb
20260504050020 62 68 1.0 2.0 0.00 0.00 0.00 63 1009.6
20260504044520 62 68 2.0 3.0 0.00 0.00 0.00 63 1009.7
20260504043020 63 67 2.0 5.0 0.00 0.00 0.00 61 1009.6
20260504041518 63 125 0.0 3.0 0.00 0.00 0.00 58 1009.4
20260504040018 64 79 0.0 4.0 0.00 0.00 0.00 55 1009.5
20260504034531 66 77 2.0 6.0 0.00 0.00 0.00 55 1009.4
20260504033023 67 63 2.0 5.0 0.00 0.00 0.00 54 1009.4
20260504031517 68 5 1.0 5.0 0.00 0.00 0.00 53 1009.4
20260504030018 70 59 2.0 3.0 0.00 0.00 0.00 51 1009.4
20260504024516 71 48 2.0 11.0 0.00 0.00 0.00 49 1009.4
20260504023014 72 5 5.0 12.0 0.00 0.00 0.00 46 1009.3
20260504021513 73 24 7.0 15.0 0.00 0.00 0.00 45 1009.4
20260504020012 73 321 9.0 16.0 0.00 0.00 0.00 46 1009.4
20260504014517 75 20 7.0 13.0 0.00 0.00 0.00 45 1009.5
20260504013009 76 31 5.0 10.0 0.00 0.00 0.00 44 1009.6
20260504011507 77 73 4.0 8.0 0.00 0.00 0.00 43 1009.8
20260504010006 78 13 4.0 9.0 0.00 0.00 0.00 43 1009.8
20260504004505 78 41 3.0 6.0 0.00 0.00 0.00 43 1010.0
20260504003003 78 61 2.0 5.0 0.00 0.00 0.00 42 1010.1
20260504001501 78 49 3.0 6.0 0.00 0.00 0.00 42 1010.3
20260504000108 78 49 3.0 10.0 0.00 0.00 0.00 43 1010.3
20260503234558 78 329 4.0 11.0 0.00 0.00 0.00 39 1010.5
20260503233056 78 351 3.0 12.0 0.00 0.00 0.00 42 1010.7
20260503231555 78 47 4.0 9.0 0.00 0.00 0.00 46 1010.9
20260503230051 77 5 3.0 10.0 0.00 0.00 0.00 48 1011.2
20260503224551 77 10 6.0 9.0 0.00 0.00 0.00 47 1011.3
20260503223047 78 58 3.0 9.0 0.00 0.00 0.00 43 1011.5
20260503221544 78 5 4.0 10.0 0.00 0.00 0.00 43 1011.7
20260503220041 77 33 3.0 9.0 0.00 0.00 0.00 43 1011.8
20260503214545 76 5 4.0 8.0 0.00 0.00 0.00 45 1012.0
20260503213052 75 324 3.0 8.0 0.00 0.00 0.00 47 1012.2
20260503211538 75 329 5.0 10.0 0.00 0.00 0.00 48 1012.3
20260503210028 74 299 4.0 11.0 0.00 0.00 0.00 50 1012.4
20260503204536 74 16 4.0 9.0 0.00 0.00 0.00 52 1012.6
20260503203026 73 12 3.0 10.0 0.00 0.00 0.00 51 1012.8
20260503201524 73 35 2.0 4.0 0.00 0.00 0.00 54 1012.9
20260503200015 71 38 3.0 11.0 0.00 0.00 0.00 55 1013.1
20260503194518 70 38 3.0 10.0 0.00 0.00 0.00 60 1013.4
20260503193007 68 29 3.0 10.0 0.00 0.00 0.00 60 1013.6
20260503191503 67 19 3.0 6.0 0.00 0.00 0.00 62 1013.8
20260503190101 67 38 4.0 9.0 0.00 0.00 0.00 63 1014.0
20260503184628 66 13 4.0 8.0 0.00 0.00 0.00 66 1014.0
20260503183104 65 16 3.0 6.0 0.00 0.00 0.00 69 1014.2
20260503181552 64 26 2.0 6.0 0.00 0.00 0.00 70 1014.3
20260503180050 64 56 2.0 6.0 0.00 0.00 0.00 69 1014.4
20260503174603 64 34 1.0 6.0 0.00 0.00 0.00 69 1014.5
20260503173100 64 22 4.0 9.0 0.00 0.00 0.00 69 1014.5
20260503171548 63 36 3.0 9.0 0.00 0.00 0.00 71 1014.6
20260503081559 61 94 0.0 2.0 0.00 0.00 0.00 63 1014.9
20260503071603 63 61 4.0 9.0 0.00 0.00 0.00 57 1014.7